Regional Weather Roundup
Issued by NWS

Home | Current Version | Previous Version | Graphics & Text | Print | Product List | Glossary On
Versions: 1 2 3 4 5 6 7 8 9 10 11 12 13 14 15 16 17 18 19 20 21 22 23 24 25 26 27
000
ASUS45 KBOU 300407
RWRCO

WEATHER ROUNDUP FOR COLORADO
NATIONAL WEATHER SERVICE DENVER/BOULDER CO
1000 PM MDT SAT APR 29 2017

NOTE: "FAIR" INDICATES FEW OR NO CLOUDS BELOW 12000 FEET WITH NO
SIGNIFICANT WEATHER AND/OR OBSTRUCTIONS TO VISIBILITY.

COZ001>005-013-030-031-300500-
...NORTHWEST COLORADO...

CITY           SKY/WX    TMP DP  RH WIND       PRES   REMARKS
CRAIG          FAIR      34  21  59 N8        30.17R WCI  27
HAYDEN         FAIR      34  23  64 NE5       30.16R WCI  30
MEEKER         FAIR      35  20  54 N14       30.16R WCI  26
MOUNT WERNER   NOT AVBL
STEAMBOAT SPGS FAIR      32  22  66 CALM      30.15R
WALDEN           N/A     19  12  73 NW6       30.19R WCI  11
$$

COZ006>008-011-300500-
...WEST CENTRAL VALLEYS...

CITY           SKY/WX    TMP DP  RH WIND       PRES   REMARKS
GRAND JUNCTION FAIR      44  19  36 N10       30.14R
MONTROSE       CLOUDY    42  27  55 N8        30.12R
EAGLE          MOCLDY    31  23  72 CALM      30.17R
RIFLE          MOCLDY    42  22  44 NW7       30.13R
DELTA          FAIR      47  21  34 NW12      30.10R
NUCLA          FAIR      41  19  42 N8        30.14R
$$

COZ017>023-064>068-300500-
...SOUTHWEST COLORADO...

CITY           SKY/WX    TMP DP  RH WIND       PRES   REMARKS
DURANGO        FAIR      30  27  88 NE3       30.02R
CORTEZ         FAIR      40  21  46 N8        30.07R
PAGOSA SPRINGS FAIR      34  22  63 N6        30.04R WCI  29
TELLURIDE      LGT SNOW  30  21  70 W10       30.10R WCI  21
WOLF CREEK PAS LGT SNOW  12  12 100 N12G17    30.08R WCI  -2
$$

COZ009-010-012-014-032>034-037-058>063-300500-
...CENTRAL COLORADO...

CITY           SKY/WX    TMP DP  RH WIND       PRES   REMARKS
ASPEN          FAIR      28  20  71 CALM      30.11R
BUENA VISTA    CLOUDY    28  22  78 W5        30.09S WCI  22
COPPER MTN     LGT SNOW  18  10  73 MISG      30.10R
BERTHOUD PASS  SNOW      10   0  61 NW10G16   30.09R VSB<1/4 WCI  -3
COTTONWOOD PAS CLOUDY    27  23  86 W6        30.08S WCI  20
GUNNISON       FAIR      34  25  69 CALM      30.08R
KREMMLING      MOCLDY    34  23  64 N9        30.16R WCI  26
LEADVILLE      FAIR      18  13  80 N9        30.09R WCI   7
MONARCH PASS   CLOUDY    14  12  92 NE3       30.16R
SALIDA         CLOUDY    30  27  88 CALM      30.17S
SUNLIGHT       FLURRIES  18  16  93 N5        30.18R WCI  11
WILKERSON PASS CLOUDY   N/A N/A N/A N15G24    30.08R
$$

COZ069>075-300500-
...SAN LUIS VALLEY/SANGRE DE CRISTO MOUNTAINS...

CITY           SKY/WX    TMP DP  RH WIND       PRES   REMARKS
ALAMOSA        LGT SNOW  27  25  92 W7        30.04R FOG     WCI  19
LA VETA PASS   SNOW      16  12  86 N9        30.12S VSB 1/2 WCI   4
SAGUACHE       CLOUDY    32  18  55 NW10      30.05R WCI  24
$$

COZ035-036-038>040-300500-
...NORTHERN COLORADO FRONT RANGE...

CITY           SKY/WX    TMP DP  RH WIND       PRES   REMARKS
DENVER INTL AP MOCLDY    30  25  81 NW14      30.18F WCI  19
DMNS CITY PARK   N/A     29  28  99 NW1       30.21F
AURORA         CLOUDY    28  28  99 NW15      30.19F WCI  16
FRONT RANGE AP NOT AVBL
ERIE MUNI ARPT FAIR      30  26  86 W5        30.22S WCI  25
BOULDER MUN AP FAIR      32  28  86 W8        30.21F WCI  25
CENTENNIAL     LGT SNOW  27  26  96 NW16      30.19S FOG     WCI  15
BROOMFIELD     CLEAR     28  27  93 W5        30.22S WCI  23
FORT COLLINS   FAIR      33  21  61 CALM      30.21S
LONGMONT       MOCLDY    34  24  66 CALM      30.24S
$$

COZ041-046-047-076>085-087-088-300500-
...PIKES PEAK/PALMER DIVIDE AND SOUTHERN FOOTHILLS...

CITY           SKY/WX    TMP DP  RH WIND       PRES   REMARKS
COLO. SPRINGS  CLOUDY    29  20  69 N28G36    30.08F WCI  14
A. F. ACADEMY  MIX PCPN  25  22  85 N22       30.08F FOG     WCI  11
SCHRIEVER AFB  CLOUDY    27  20  76 N26G37    30.06R WCI  12
ELLICOTT       LGT RAIN N/A N/A N/A N36G47    30.01F
FALCON         CLOUDY    25  19  79 N30G40    30.05S WCI   8
FORT CARSON    FAIR      29  22  72 N29G40    30.05S WCI  14
LIMON          LGT SNOW  29  28  96 N28G38    30.08F FOG     WCI  14
MONUMENT HILL  LGT SNOW  23  21  93 N24G30    30.13F WCI   7
TRINIDAD       LGT SNOW  28  23  81 N21G30    30.10R WCI  15
$$

COZ042>045-048>051-090-091-300500-
...NORTHEAST COLORADO...

CITY           SKY/WX    TMP DP  RH WIND       PRES   REMARKS
GREELEY ARPT   FAIR      33  26  75 NW12      30.21F WCI  24
AKRON          CLOUDY    38  22  52 N22G28    30.12F
BURLINGTON     NOT AVBL
WRAY           NOT AVBL
STERLING       FAIR      41  30  65 N12       30.14S
HOLYOKE        FAIR      41  27  56 N12       30.11S
FORT MORGAN    FAIR      36  23  59 NW8       30.17F
$$

COZ086-089-092>099-300500-
...SOUTHEAST COLORADO...

CITY           SKY/WX    TMP DP  RH WIND       PRES   REMARKS
PUEBLO         CLOUDY    35  23  61 N24G33    30.09F WCI  23
LA JUNTA       FLURRIES  35  29  78 N22G33    30.07R WCI  23
LAMAR          LGT SNOW  34  30  85 N23G31    30.00S FOG     WCI  22
SPRINGFIELD      N/A     30  30 100 N35G46    29.95R WCI  14
$$




USA.gov is the U.S. government's official web portal to all federal, state and local government web resources and services.